[[{"header":{"parameterUnit":"m.s-1","parameterCategory":1,"la1":30.2991,"la2":30.254,"lo1":-89.0895,"lo2":-89.0444,"dy":0.0017,"dx":0.0017,"nx":28,"ny":28,"refTime":"2023-09-10T09:00:00:Z","depth":0,"parameterNumber":2,"parameterNumberName":"U-component_of_WINDS"},"data":[0,0,0,0,0,0,0,0,0,0,0,0,0,0,0,0,0,0,0,0,0,0,0,0,0,0,0,0,0,0,0,0,0,0,0,0,0,0,0,0,0,0,0,0,0,0,0,0,0,0,0,0,0,0,0,0,0,0,-1.6546,-1.6545,0,-1.6443,-1.6442,-1.6441,-1.6384,-1.6384,-1.6383,-1.6383,-1.6277,-1.6274,-1.6272,0,0,0,0,0,0,0,0,0,0,0,0,0,-1.6693,-1.669,-1.6546,-1.6545,-1.6543,-1.6443,-1.6442,-1.6441,-1.6384,-1.6384,-1.6383,-1.6383,-1.6278,-1.6275,-1.6272,0,0,0,0,0,0,0,0,0,0,0,0,0,-1.6613,-1.6689,-1.6546,-1.6503,-1.6498,-1.6444,-1.6442,-1.644,-1.6384,-1.6384,-1.6383,-1.6383,-1.6279,-1.6275,-1.6271,-1.6251,0,0,-1.6259,-1.6257,0,0,0,0,0,0,0,0,-1.6618,-1.6608,-1.6511,-1.6506,-1.65,-1.6426,-1.6455,-1.6377,-1.6384,-1.6427,-1.6383,-1.6383,-1.6327,-1.6319,-1.63,-1.6246,-1.6242,-1.6258,-1.6256,-1.6254,-1.6253,0,0,0,0,0,0,0,-1.6623,-1.6612,-1.6505,-1.6509,-1.6503,-1.6489,-1.6477,-1.644,-1.638,-1.6423,-1.6419,-1.6408,-1.6324,-1.6304,-1.6297,-1.624,-1.6259,-1.6255,-1.6253,-1.6251,-1.6167,-1.6167,0,0,0,0,0,0,-1.6636,-1.6617,-1.6508,-1.6502,-1.656,-1.6486,-1.6473,-1.645,-1.638,-1.6369,-1.6408,-1.6405,-1.6311,-1.6302,-1.6293,-1.6266,-1.6254,-1.6251,-1.6248,-1.6167,-1.6167,-1.6167,0,0,0,0,0,0,-1.6639,-1.6627,-1.6513,-1.6558,-1.6543,-1.6484,-1.6458,-1.6448,-1.6428,-1.6368,-1.6357,-1.6399,-1.631,-1.6299,-1.6263,-1.6262,-1.6249,-1.6245,-1.6166,-1.6167,-1.6167,-1.6212,0,0,0,0,0,0,-1.6644,-1.6628,-1.662,-1.6559,-1.6541,-1.6484,-1.6458,-1.6446,-1.6422,-1.6417,-1.6357,-1.6346,-1.6309,-1.6269,-1.6259,-1.6256,-1.6242,-1.6166,-1.6167,-1.6167,-1.621,-1.6213,-1.6216,0,0,0,0,0,-1.6649,-1.6636,-1.662,-1.6607,-1.6529,-1.6484,-1.6473,-1.6431,-1.6422,-1.6413,-1.6375,-1.6348,-1.6264,-1.6266,-1.6254,-1.625,-1.6166,-1.6166,-1.6167,-1.6208,-1.6213,-1.6216,0,0,0,0,0,0,-1.6698,-1.6627,-1.6608,-1.6575,-1.6536,-1.6474,-1.6462,-1.6437,-1.6399,-1.6397,-1.6346,-1.6333,-1.6302,-1.6272,-1.6275,-1.6228,-1.6212,-1.621,-1.6248,-1.6251,-1.6254,-1.6262,-1.6239,0,0,0,0,0,-1.6705,-1.6675,-1.6614,-1.6591,-1.6572,-1.6521,-1.6499,-1.6471,-1.6428,-1.6411,-1.637,-1.6329,-1.6293,-1.6271,-1.6234,-1.6206,-1.6192,-1.6197,-1.62,-1.6203,-1.6202,-1.6186,-1.6187,-1.6168,-1.6168,-1.6168,0,0,-1.6719,-1.6677,-1.666,-1.6599,-1.6566,-1.6535,-1.6507,-1.6475,-1.6452,-1.6406,-1.6369,-1.6338,-1.629,-1.6257,-1.6241,-1.6232,-1.6205,-1.6204,-1.6207,-1.6203,-1.6186,-1.6188,-1.619,-1.6168,-1.6168,-1.6168,0,0,-1.6729,-1.6694,-1.667,-1.6638,-1.6588,-1.6554,-1.6549,-1.6491,-1.6468,-1.6431,-1.6396,-1.6368,-1.6307,-1.6275,-1.625,-1.625,-1.6224,-1.624,-1.6256,-1.624,-1.6242,-1.6243,-1.6243,-1.6244,-1.6239,-1.6239,-1.6239,0,-1.6752,-1.6705,-1.6662,-1.6633,-1.6607,-1.6565,-1.6542,-1.6512,-1.6452,-1.6436,-1.6427,-1.6351,-1.6315,-1.6275,-1.6275,-1.6257,-1.6249,-1.6246,-1.6245,-1.6246,-1.6246,-1.6246,-1.6246,-1.6241,-1.6241,-1.624,-1.624,0,-1.6736,-1.6704,-1.6692,-1.6636,-1.661,-1.6584,-1.6537,-1.6515,-1.649,-1.6457,-1.6421,-1.6377,-1.6331,-1.632,-1.6294,-1.6276,-1.6272,-1.6255,-1.6238,-1.6251,-1.625,-1.625,-1.6244,-1.6243,-1.6243,-1.6242,0,0,-1.6772,-1.6695,-1.6691,-1.6666,-1.6608,-1.6583,-1.6555,-1.6512,-1.6494,-1.6455,-1.6431,-1.6382,-1.6366,-1.6338,-1.6309,-1.6296,-1.6299,-1.6279,-1.6278,-1.6285,-1.6278,-1.6292,-1.6292,-1.6282,-1.6282,-1.6282,-1.6282,0,-1.6773,-1.6722,-1.6684,-1.6647,-1.6618,-1.6578,-1.6555,-1.6517,-1.6486,-1.6457,-1.6423,-1.6389,-1.637,-1.6354,-1.6339,-1.6302,-1.6297,-1.6301,-1.626,-1.6259,-1.6273,-1.6291,-1.6305,-1.6307,-1.6282,-1.6282,-1.6281,0,-1.6767,-1.6731,-1.6692,-1.6639,-1.6625,-1.6605,-1.6562,-1.6535,-1.6492,-1.6471,-1.6441,-1.6411,-1.6381,-1.6368,-1.6326,-1.633,-1.6311,-1.6291,-1.629,-1.6284,-1.627,-1.6286,-1.6307,-1.6307,-1.628,-1.628,-1.628,0,-1.6798,-1.6739,-1.6708,-1.6688,-1.6625,-1.6612,-1.6585,-1.6542,-1.6519,-1.6482,-1.6467,-1.6427,-1.6405,-1.6376,-1.6336,-1.633,-1.6299,-1.6282,-1.628,-1.6281,-1.6274,-1.6275,-1.6293,-1.6263,-1.6263,-1.6263,-1.6263,0,-1.6803,-1.6781,-1.6721,-1.6702,-1.6677,-1.6633,-1.6609,-1.6579,-1.6541,-1.6516,-1.648,-1.6457,-1.6406,-1.6377,-1.6346,-1.6317,-1.6307,-1.6289,-1.6281,-1.6292,-1.6295,-1.6279,-1.6277,-1.6263,-1.6263,-1.6263,-1.6263,0,-1.6832,-1.6791,-1.6755,-1.67,-1.6685,-1.6669,-1.6621,-1.6602,-1.657,-1.6539,-1.6529,-1.6479,-1.6444,-1.6402,-1.6352,-1.6331,-1.6305,-1.6293,-1.6319,-1.6315,-1.6315,-1.6316,-1.6322,-1.6321,-1.6293,-1.6293,-1.6294,0,-1.6838,-1.682,-1.6763,-1.6744,-1.6719,-1.6688,-1.6665,-1.6622,-1.6599,-1.655,-1.6536,-1.6499,-1.6466,-1.6411,-1.637,-1.6333,-1.632,-1.6325,-1.6313,-1.6326,-1.632,-1.6321,-1.632,-1.6327,-1.6328,-1.6328,-1.6329,0,-1.6852,-1.6834,-1.6801,-1.6763,-1.6736,-1.6703,-1.6669,-1.6656,-1.6606,-1.6582,-1.6546,-1.6521,-1.6471,-1.6434,-1.6392,-1.6364,-1.6338,-1.6333,-1.633,-1.6341,-1.6357,-1.6349,-1.6327,-1.6332,-1.6332,-1.6332,-1.6331,-1.6331,-1.687,-1.6852,-1.681,-1.6776,-1.6746,-1.6715,-1.6695,-1.6661,-1.663,-1.6587,-1.6564,-1.6528,-1.6487,-1.6428,-1.6402,-1.6374,-1.6364,-1.6361,-1.636,-1.636,-1.6363,-1.6363,-1.6366,-1.6366,-1.6365,-1.6365,-1.6365,0,-1.6883,-1.6854,-1.6823,-1.6777,-1.675,-1.6729,-1.6691,-1.667,-1.6639,-1.6604,-1.6573,-1.6532,-1.6496,-1.6454,-1.6416,-1.6401,-1.6389,-1.6393,-1.6393,-1.6388,-1.6373,-1.6379,-1.6404,-1.6404,-1.6404,-1.6404,-1.6404,-1.6404,-1.6886,-1.6856,-1.6833,-1.6788,-1.676,-1.6725,-1.6705,-1.6677,-1.6648,-1.6604,-1.6575,-1.6548,-1.651,-1.6469,-1.6435,-1.6424,-1.6412,-1.6419,-1.6405,-1.6392,-1.6388,-1.6385,-1.6391,-1.6417,-1.6417,-1.6421,-1.6421,-1.6421]},{"header":{"parameterUnit":"m.s-1","parameterCategory":1,"la1":30.2991,"la2":30.254,"lo1":-89.0895,"lo2":-89.0444,"dy":0.0017,"dx":0.0017,"nx":28,"ny":28,"refTime":"2023-09-10T09:00:00:Z","depth":0,"parameterNumber":3,"parameterNumberName":"V-component_of_WINDS"},"data":[0,0,0,0,0,0,0,0,0,0,0,0,0,0,0,0,0,0,0,0,0,0,0,0,0,0,0,0,0,0,0,0,0,0,0,0,0,0,0,0,0,0,0,0,0,0,0,0,0,0,0,0,0,0,0,0,0,0,2.3598,2.3598,0,2.3603,2.3603,2.3604,2.3647,2.3648,2.3649,2.365,2.3652,2.3651,2.365,0,0,0,0,0,0,0,0,0,0,0,0,0,2.3623,2.3622,2.3598,2.3598,2.3598,2.3603,2.3603,2.3604,2.3647,2.3648,2.3649,2.3651,2.3652,2.3651,2.365,0,0,0,0,0,0,0,0,0,0,0,0,0,2.3618,2.3622,2.3598,2.3621,2.3623,2.3603,2.3603,2.3604,2.3646,2.3648,2.365,2.3651,2.3653,2.3651,2.365,2.3608,0,0,2.3645,2.3645,0,0,0,0,0,0,0,0,2.3619,2.3617,2.3617,2.3619,2.3621,2.3626,2.3613,2.3605,2.3646,2.3637,2.365,2.3652,2.3642,2.3641,2.3639,2.3609,2.3609,2.3645,2.3644,2.3644,2.3643,0,0,0,0,0,0,0,2.3619,2.3617,2.36,2.3617,2.362,2.3629,2.3631,2.3612,2.363,2.3638,2.3641,2.3642,2.3643,2.364,2.3639,2.3609,2.3645,2.3644,2.3643,2.3643,2.3544,2.3542,0,0,0,0,0,0,2.3616,2.3617,2.36,2.36,2.3624,2.3628,2.3629,2.3623,2.3631,2.3633,2.364,2.3644,2.3642,2.3641,2.3639,2.3591,2.3644,2.3643,2.3642,2.3546,2.3544,2.3542,0,0,0,0,0,0,2.3617,2.3614,2.36,2.361,2.3609,2.3626,2.3618,2.3622,2.3619,2.3632,2.3635,2.3634,2.3643,2.3641,2.3616,2.3591,2.3642,2.3641,2.3548,2.3545,2.3543,2.3493,0,0,0,0,0,0,2.3617,2.3614,2.3599,2.3609,2.3608,2.3577,2.3617,2.3621,2.3617,2.3621,2.3627,2.3629,2.3644,2.3618,2.3614,2.359,2.3639,2.355,2.3547,2.3544,2.3497,2.3489,2.3482,0,0,0,0,0,2.3618,2.3584,2.3598,2.3596,2.359,2.3575,2.3575,2.3593,2.3615,2.3599,2.3608,2.3629,2.3595,2.3615,2.3611,2.3586,2.3552,2.3548,2.3544,2.35,2.3491,2.3482,0,0,0,0,0,0,2.357,2.3586,2.3602,2.3571,2.3571,2.3583,2.3564,2.3583,2.3577,2.3581,2.3603,2.3604,2.3575,2.3579,2.36,2.3546,2.3577,2.3572,2.3545,2.3536,2.3529,2.3528,2.3638,0,0,0,0,0,2.3556,2.3544,2.3559,2.353,2.3529,2.3547,2.3541,2.3556,2.3557,2.3557,2.3564,2.3563,2.3553,2.3545,2.3536,2.3498,2.3499,2.3479,2.3472,2.3466,2.3461,2.344,2.3431,2.3529,2.3529,2.3529,0,0,2.3527,2.3534,2.3525,2.352,2.3523,2.3509,2.3546,2.353,2.352,2.3554,2.3531,2.3536,2.3537,2.3505,2.3491,2.3507,2.3435,2.3461,2.3456,2.3454,2.3435,2.3426,2.3418,2.3526,2.3527,2.3527,0,0,2.3465,2.347,2.3447,2.3449,2.3452,2.3464,2.3458,2.3467,2.3472,2.3449,2.3474,2.3462,2.3443,2.3443,2.344,2.3379,2.3398,2.3376,2.3336,2.3316,2.3309,2.3302,2.3279,2.3271,2.3371,2.3371,2.3371,0,2.3428,2.3409,2.3432,2.3414,2.341,2.3443,2.3418,2.3419,2.3418,2.3415,2.3433,2.341,2.3413,2.3381,2.3366,2.3364,2.3357,2.3374,2.3308,2.3302,2.3296,2.3274,2.3265,2.3368,2.3368,2.3369,2.3369,0,2.3362,2.3348,2.3328,2.3329,2.3323,2.3302,2.3321,2.3313,2.3328,2.3337,2.3313,2.3318,2.331,2.3304,2.3318,2.3274,2.3283,2.3305,2.3335,2.3283,2.3263,2.3255,2.3364,2.3365,2.3366,2.3366,0,0,2.3269,2.3283,2.3275,2.3275,2.3282,2.3271,2.3252,2.3245,2.3237,2.3236,2.3219,2.3203,2.3222,2.3219,2.3234,2.3216,2.3167,2.324,2.324,2.3225,2.3117,2.31,2.309,2.318,2.3179,2.3178,2.3116,0,2.3209,2.3176,2.3197,2.316,2.3148,2.3179,2.3161,2.3163,2.3171,2.3161,2.317,2.3158,2.3185,2.3183,2.3168,2.3176,2.3145,2.3181,2.3163,2.3162,2.316,2.308,2.3061,2.3003,2.3109,2.3107,2.3106,0,2.3134,2.3131,2.3094,2.3103,2.3099,2.3083,2.3078,2.3068,2.3071,2.3078,2.3075,2.3094,2.3074,2.3106,2.3078,2.3102,2.3096,2.3099,2.3097,2.3095,2.313,2.3073,2.2985,2.2976,2.3095,2.3095,2.3096,0,2.3069,2.3055,2.3031,2.3031,2.3041,2.3029,2.3033,2.3037,2.3032,2.3028,2.3024,2.3017,2.3013,2.3007,2.3023,2.3046,2.2993,2.3026,2.2997,2.2996,2.2983,2.2983,2.2891,2.2982,2.2982,2.2982,2.2982,0,2.2999,2.2974,2.3002,2.2987,2.296,2.2984,2.2956,2.2963,2.2967,2.2952,2.2979,2.2965,2.2989,2.2977,2.2989,2.2963,2.2962,2.2966,2.2969,2.2963,2.2962,2.2958,2.2962,2.298,2.298,2.2981,2.2981,0,2.292,2.2938,2.2913,2.2926,2.2928,2.2908,2.2918,2.2904,2.2915,2.2897,2.2894,2.2911,2.2898,2.2914,2.2903,2.2912,2.2876,2.2886,2.2875,2.2878,2.2847,2.2849,2.2747,2.2735,2.2835,2.2834,2.2833,0,2.2873,2.2856,2.2866,2.286,2.2862,2.285,2.2846,2.2868,2.2862,2.2863,2.2848,2.2839,2.2832,2.281,2.282,2.2812,2.2821,2.2786,2.2819,2.2813,2.2818,2.2819,2.2816,2.2778,2.2777,2.2776,2.2775,0,2.2788,2.2798,2.2791,2.2786,2.278,2.2777,2.2776,2.2769,2.2792,2.2783,2.2772,2.2766,2.2755,2.2744,2.2739,2.2741,2.2761,2.2765,2.2757,2.2749,2.2743,2.2745,2.2855,2.2767,2.2767,2.2768,2.2769,2.2769,2.2724,2.2709,2.2714,2.2705,2.2707,2.2705,2.2693,2.2703,2.2694,2.2687,2.2701,2.2685,2.2688,2.2682,2.2683,2.267,2.2685,2.2675,2.2672,2.2668,2.2663,2.2747,2.2669,2.267,2.267,2.267,2.267,0,2.2639,2.2644,2.2635,2.2634,2.2626,2.2648,2.2648,2.2639,2.2626,2.2627,2.262,2.2606,2.2596,2.2606,2.2597,2.2585,2.2594,2.2582,2.2582,2.2582,2.2651,2.2657,2.2575,2.2575,2.2575,2.2575,2.2575,2.2575,2.2594,2.257,2.258,2.2557,2.2563,2.2548,2.2546,2.2545,2.2546,2.2529,2.2522,2.2529,2.2533,2.2525,2.2516,2.252,2.2514,2.2499,2.2505,2.2568,2.2578,2.2586,2.2593,2.2498,2.2498,2.2437,2.2437,2.2436]}]]